RH
19 22 23 27 25 25 23 25 26 32 32 40 41 43 48 49 50 47 46 42 37 33
14 19 22 23 21 20 21 24 24 31 36 36 44 46 49 54 55 50 48 48 43 37
14 14 15 16 21 25 26 28 27 32 38 38 45 49 52 56 57 55 48 49 48 42
20 20 22 22 22 30 33 31 34 35 46 45 50 57 60 60 58 60 52 49 51 46
26 25 26 26 28 32 37 38 42 45 45 58 57 68 70 65 67 63 55 55 54 51
31 28 28 32 33 34 36 40 47 58 55 53 72 82 80 76 72 70 60 61 58 56
35 30 31 36 38 40 37 41 54 63 61 53 51 79 93 91 83 67 63 66 63 59
42 33 34 38 42 41 45 51 61 69 72 64 68 64 81 88 89 71 69 70 67 61
45 37 35 33 38 44 47 52 71 72 60 56 74 71 74 80 81 82 76 72 70 64
50 46 38 36 38 40 43 45 47 52 56 67 85 89 92 98 92 88 78 73 73 65
57 49 46 39 31 34 41 41 42 54 64 72 89 97 98 98 94 88 83 74 75 65
63 57 50 43 34 35 39 39 46 60 64 85 95 98 99 98 96 92 85 80 73 64
66 67 56 49 38 36 35 38 55 68 83 90 98 98 98 98 97 94 87 79 71 64
65 67 60 48 41 35 32 42 64 81 88 95 98 98 98 98 97 97 90 76 69 57